When you browse on this site, cookies collect data to enhance your experience and personalize the content and advertising you see.
Visit our Privacy Policy to learn more. By continuing to use the site, you agree to this use of cookies and data.
  • In Belgium
  • List of Countries
  • For 7 days
  • Water Temperature
  • Satellite Maps
  • Weather Map
  • Weather Widgets
  • user-avatar
    Login

    Hourly Weather Rize

    Today, 18 February, Monday

    Time Temperature Precipitation Wind Pressure Humidity
    00:00 +5°C° 0 mm 2 mps 764 mmHg 52%
    01:00 +6°C° 0 mm 2 mps 764 mmHg 53%
    02:00 +6°C° 0 mm 2 mps 764 mmHg 55%
    03:00 +6°C° 0 mm 2 mps 764 mmHg 56%
    04:00 +6°C° 0 mm 2 mps 763 mmHg 58%
    05:00 +6°C° 0 mm 2 mps 763 mmHg 60%
    06:00 +6°C° 0 mm 2 mps 763 mmHg 62%
    07:00 +7°C° 0 mm 2 mps 763 mmHg 62%
    08:00 +8°C° 0 mm 2 mps 762 mmHg 62%
    09:00 +9°C° 0 mm 2 mps 762 mmHg 63%
    10:00 +10°C° 0 mm 2 mps 761 mmHg 62%
    11:00 +10°C° 0 mm 2 mps 761 mmHg 61%
    12:00 +12°C° 0 mm 2 mps 760 mmHg 60%
    13:00 +12°C° 0 mm 2 mps 760 mmHg 59%
    14:00 +12°C° 0 mm 2 mps 760 mmHg 59%
    15:00 +10°C° 0 mm 2 mps 759 mmHg 59%
    16:00 +9°C° 0 mm 2 mps 759 mmHg 59%
    17:00 +8°C° 0 mm 3 mps 759 mmHg 60%
    18:00 +7°C° 0 mm 3 mps 760 mmHg 60%
    19:00 +6°C° 0.2 mm 4 mps 760 mmHg 62%
    20:00 +6°C° 0.2 mm 4 mps 760 mmHg 64%
    21:00 +6°C° 0.2 mm 4 mps 760 mmHg 66%
    22:00 +6°C° 0.5 mm 4 mps 760 mmHg 67%
    23:00 +6°C° 0.5 mm 4 mps 760 mmHg 69%

    Tomorrow, 19 February, Tuesday

    Time Temperature Precipitation Wind Pressure Humidity
    00:00 +6°C° 0.5 mm 4 mps 760 mmHg 70%
    01:00 +6°C° 0.5 mm 4 mps 760 mmHg 76%
    02:00 +5°C° 0.5 mm 4 mps 760 mmHg 82%
    03:00 +5°C° 0.5 mm 3 mps 761 mmHg 87%
    04:00 +5°C° 0.4 mm 3 mps 761 mmHg 88%
    05:00 +5°C° 0.4 mm 3 mps 761 mmHg 89%
    06:00 +4°C° 0.4 mm 3 mps 761 mmHg 90%
    07:00 +5°C° 0.1 mm 3 mps 762 mmHg 85%
    08:00 +5°C° 0.1 mm 3 mps 763 mmHg 80%
    09:00 +5°C° 0.1 mm 3 mps 763 mmHg 76%
    10:00 +7°C° 0.1 mm 3 mps 763 mmHg 71%
    11:00 +7°C° 0.1 mm 2 mps 763 mmHg 66%
    12:00 +8°C° 0.1 mm 2 mps 763 mmHg 62%
    13:00 +8°C° 0 mm 2 mps 763 mmHg 61%
    14:00 +8°C° 0 mm 2 mps 763 mmHg 60%
    15:00 +8°C° 0 mm 2 mps 763 mmHg 60%
    16:00 +8°C° 0 mm 1 mps 764 mmHg 61%
    17:00 +7°C° 0 mm 1 mps 764 mmHg 63%
    18:00 +5°C° 0 mm 1 mps 764 mmHg 65%
    19:00 +5°C° 0 mm 1 mps 765 mmHg 60%
    20:00 +5°C° 0 mm 1 mps 765 mmHg 56%
    21:00 +5°C° 0 mm 1 mps 766 mmHg 51%
    22:00 +5°C° 0 mm 1 mps 766 mmHg 49%
    23:00 +5°C° 0 mm 1 mps 766 mmHg 47%

    Day after tomorrow, 20 February, Wednesday

    Time Temperature Precipitation Wind Pressure Humidity
    00:00 +4°C° 0 mm 2 mps 766 mmHg 45%
    01:00 +4°C° 0 mm 2 mps 766 mmHg 44%
    02:00 +4°C° 0 mm 2 mps 765 mmHg 44%
    03:00 +4°C° 0 mm 2 mps 765 mmHg 43%
    04:00 +4°C° 0 mm 2 mps 765 mmHg 43%
    05:00 +4°C° 0 mm 2 mps 765 mmHg 44%
    06:00 +5°C° 0 mm 2 mps 765 mmHg 44%
    07:00 +6°C° 0 mm 2 mps 765 mmHg 45%
    08:00 +7°C° 0 mm 2 mps 765 mmHg 47%
    09:00 +8°C° 0 mm 2 mps 765 mmHg 48%
    10:00 +9°C° 0 mm 2 mps 764 mmHg 50%
    11:00 +10°C° 0 mm 3 mps 763 mmHg 51%
    12:00 +11°C° 0 mm 3 mps 763 mmHg 53%
    13:00 +11°C° 0 mm 3 mps 762 mmHg 54%
    14:00 +11°C° 0 mm 3 mps 762 mmHg 56%
    15:00 +11°C° 0 mm 3 mps 762 mmHg 57%
    16:00 +10°C° 0 mm 2 mps 762 mmHg 59%
    17:00 +9°C° 0 mm 2 mps 762 mmHg 61%
    18:00 +8°C° 0 mm 2 mps 762 mmHg 63%
    19:00 +8°C° 0 mm 2 mps 763 mmHg 59%
    20:00 +8°C° 0 mm 2 mps 763 mmHg 54%
    21:00 +8°C° 0 mm 2 mps 764 mmHg 49%
    22:00 +8°C° 0 mm 3 mps 764 mmHg 47%
    23:00 +7°C° 0 mm 3 mps 764 mmHg 45%

    21 February, Thursday

    Time Temperature Precipitation Wind Pressure Humidity
    00:00 +7°C° 0 mm 3 mps 764 mmHg 43%
    01:00 +7°C° 0 mm 3 mps 764 mmHg 43%
    02:00 +7°C° 0 mm 3 mps 764 mmHg 43%
    03:00 +7°C° 0 mm 3 mps 764 mmHg 44%
    04:00 +7°C° 0 mm 3 mps 764 mmHg 44%
    05:00 +7°C° 0 mm 3 mps 764 mmHg 44%
    06:00 +7°C° 0 mm 3 mps 763 mmHg 45%
    07:00 +8°C° 0 mm 3 mps 764 mmHg 46%
    08:00 +9°C° 0 mm 3 mps 764 mmHg 48%
    09:00 +10°C° 0 mm 2 mps 764 mmHg 50%
    10:00 +12°C° 0 mm 2 mps 764 mmHg 52%
    11:00 +13°C° 0 mm 1 mps 763 mmHg 55%
    12:00 +14°C° 0 mm 1 mps 763 mmHg 57%
    13:00 +13°C° 0 mm 1 mps 763 mmHg 57%
    14:00 +13°C° 0 mm 1 mps 762 mmHg 57%
    15:00 +13°C° 0 mm 1 mps 762 mmHg 57%
    16:00 +12°C° 0 mm 1 mps 762 mmHg 59%
    17:00 +10°C° 0 mm 2 mps 763 mmHg 61%
    18:00 +8°C° 0 mm 2 mps 763 mmHg 62%
    19:00 +8°C° 0 mm 2 mps 764 mmHg 60%
    20:00 +8°C° 0 mm 2 mps 764 mmHg 59%
    21:00 +7°C° 0 mm 3 mps 764 mmHg 57%
    22:00 +7°C° 0 mm 3 mps 765 mmHg 56%
    23:00 +7°C° 0 mm 3 mps 765 mmHg 56%

    22 February, Friday

    Time Temperature Precipitation Wind Pressure Humidity
    00:00 +7°C° 0 mm 3 mps 765 mmHg 55%
    01:00 +7°C° 0.1 mm 3 mps 765 mmHg 57%
    02:00 +7°C° 0.1 mm 3 mps 765 mmHg 58%
    03:00 +7°C° 0.1 mm 3 mps 765 mmHg 60%
    04:00 +7°C° 0.3 mm 2 mps 765 mmHg 62%
    05:00 +6°C° 0.3 mm 2 mps 765 mmHg 64%
    06:00 +6°C° 0.3 mm 2 mps 765 mmHg 66%
    07:00 +7°C° 0.2 mm 2 mps 765 mmHg 67%
    08:00 +8°C° 0.2 mm 1 mps 765 mmHg 67%
    09:00 +9°C° 0.2 mm 1 mps 765 mmHg 67%
    10:00 +10°C° 0.1 mm 1 mps 765 mmHg 66%
    11:00 +10°C° 0.1 mm 1 mps 764 mmHg 65%
    12:00 +11°C° 0.1 mm 1 mps 764 mmHg 64%
    13:00 +10°C° 0 mm 2 mps 763 mmHg 66%
    14:00 +10°C° 0 mm 2 mps 763 mmHg 68%
    15:00 +9°C° 0 mm 2 mps 762 mmHg 70%
    16:00 +10°C° 0 mm 1 mps 762 mmHg 73%
    17:00 +9°C° 0 mm 1 mps 762 mmHg 76%
    18:00 +7°C° 0 mm 0 mps 762 mmHg 79%
    19:00 +7°C° 0 mm 0 mps 762 mmHg 77%
    20:00 +7°C° 0 mm 0 mps 762 mmHg 75%
    21:00 +7°C° 0 mm 0 mps 762 mmHg 73%
    22:00 +8°C° 0 mm 1 mps 762 mmHg 72%
    23:00 +8°C° 0 mm 1 mps 762 mmHg 70%

    23 February, Saturday

    Time Temperature Precipitation Wind Pressure Humidity
    00:00 +8°C° 0 mm 1 mps 761 mmHg 69%
    01:00 +8°C° 0.1 mm 1 mps 761 mmHg 68%
    02:00 +8°C° 0.1 mm 1 mps 760 mmHg 68%
    03:00 +8°C° 0.1 mm 1 mps 760 mmHg 67%
    04:00 +8°C° 0.1 mm 1 mps 759 mmHg 68%
    05:00 +8°C° 0.1 mm 1 mps 759 mmHg 69%
    06:00 +7°C° 0.1 mm 2 mps 758 mmHg 70%
    07:00 +7°C° 0.1 mm 2 mps 758 mmHg 70%
    08:00 +8°C° 0.1 mm 2 mps 758 mmHg 71%
    09:00 +8°C° 0.1 mm 3 mps 758 mmHg 71%
    10:00 +8°C° 0.5 mm 3 mps 758 mmHg 77%
    11:00 +7°C° 0.5 mm 4 mps 757 mmHg 83%
    12:00 +6°C° 0.5 mm 5 mps 757 mmHg 89%
    13:00 +5°C° 2.2 mm 5 mps 757 mmHg 91%
    14:00 +3°C° 2.2 mm 5 mps 757 mmHg 93%
    15:00 +1°C° 2.2 mm 5 mps 758 mmHg 94%
    16:00 +1°C° 0.9 mm 5 mps 758 mmHg 93%
    17:00 0°C° 0.9 mm 5 mps 758 mmHg 92%
    18:00 0°C° 0.9 mm 5 mps 759 mmHg 91%
    19:00 -1°C° 0.5 mm 5 mps 759 mmHg 91%
    20:00 -1°C° 0.5 mm 5 mps 759 mmHg 90%
    21:00 -1°C° 0.5 mm 4 mps 759 mmHg 89%
    22:00 -2°C° 0.9 mm 4 mps 759 mmHg 90%
    23:00 -2°C° 0.9 mm 4 mps 759 mmHg 91%
    Show more